Tracking 30314 objects as of 20-Apr-2025
HD Live streaming from Space Station
objects crossing your sky now

RADUGA 25

Track RADUGA 25 now!
RADUGA 25 is classified as:


NORAD ID: 20499
Int'l Code: 1990-016A
Perigee: 35,766.1 km
Apogee: 35,800.1 km
Inclination: 12.8 °
Period: 1,435.6 minutes
Semi major axis: 42154 km
RCS: 7.9432 m2 (large)
Launch date: February 15, 1990
Source: Commonwealth of Independent States (former USSR) (CIS)
Launch site: TYURATAM MISSILE AND SPACE COMPLEX (TTMTR)
Your satellite tracking list
Your tracking list is empty




NASA's NSSDC Master Catalog

Two Line Element Set (TLE):
1 20499U 90016A   25109.45385347 -.00000264  00000-0  00000-0 0  9999
2 20499  12.7664 337.6381 0004032 195.5976 158.7044  1.00309774128656
Source of the keplerian elements: AFSPC